Location: Asheville, NC
(35.6000°N, 82.5500°W)
Time: 01:34:24
(UTC-05:00)

Vanguard 3 - Pass Details

Date: 16 February 2018
Orbit: 508 x 3264 km, 33.3° (Epoch: 21 February)

Event Time Altitude Azimuth Distance (km) Brightness Sun altitude
Rises 15:38:36 0° 220° (SW) 3,313 11.6 27.0°
Reaches altitude 10° 15:42:05 10° 201° (SSW) 2,057 10.4 26.4°
Maximum altitude 15:45:04 17° 159° (SSE) 1,436 8.8 26.0°
Drops below altitude 10° 15:47:38 10° 115° (ESE) 1,740 8.7 25.6°
Sets 15:50:15 0° 93° (E) 2,593 9.3 25.2°
